Location: Castro Valley
(37.6940°N, 122.0850°W)
Time: 06:15:18
(UTC-08:00)

Amateur Radio Satellites - All Passes

Search period start: 25 January 2015 05:45
Search period end: 26 January 2015 05:45
Location: Castro Valley, 37.6940°N, 122.0850°W

Satellite Date Start Highest point End Downlink Frequencies (MHz)
Time Altitude Azimuth
RS-15 25 Jan 05:45:19 05:56:16 85° 119° (ESE) 06:07:18 29.354- 29.394
ISS 25 Jan 05:48:18 05:51:29 41° 35° (NE) 05:54:38 145.825
PCSat 25 Jan 05:48:25 05:53:43 53° 302° (WNW) 05:59:02 145.827
PRISM 25 Jan 05:49:46 05:53:53 79° 258° (WSW) 05:58:01 437.425
DANDE 25 Jan 05:58:18 06:05:37 40° 290° (WNW) 06:13:37 436.750
JAS-2 25 Jan 06:16:13 06:20:37 24° 291° (WNW) 06:25:12 435.910
Cubesat XI-IV 25 Jan 06:40:31 06:45:55 82° 286° (WNW) 06:51:18 437.490
CUSAT 1 25 Jan 06:55:57 07:00:37 15° 302° (WNW) 07:04:51 437.405
STRAND 1 25 Jan 06:59:00 07:03:40 35° 263° (W) 07:08:19 437.568
CUTE-I 25 Jan 07:02:02 07:07:15 52° 288° (WNW) 07:12:27 437.470
CUBESAT XI-V 25 Jan 07:05:39 07:09:06 20° 267° (W) 07:12:26 437.345
YUBILEINY 25 Jan 07:21:48 07:30:37 82° 82° (E) 07:39:27 435.215
ISS 25 Jan 07:25:27 07:27:47 18° 230° (SW) 07:30:04 145.825
BRITE-PL 25 Jan 07:28:47 07:31:24 14° 87° (E) 07:34:19 437.365/2234.400
GOMX 1 25 Jan 07:47:20 07:49:51 14° 87° (E) 07:52:40 467.674
RS-15 25 Jan 08:00:52 08:10:11 30° 324° (NW) 08:19:24 29.354- 29.394
DOVE 4 25 Jan 08:19:44 08:23:29 20° 90° (E) 08:27:17 437.250
HO-68 25 Jan 08:22:15 08:28:45 37° 97° (E) 08:35:19 435.675
COMPASS 1 25 Jan 08:22:48 08:25:38 18° 92° (E) 08:28:34 437.405
CANX-2 25 Jan 08:22:59 08:26:40 29° 96° (E) 08:30:22 2200.000
Oscar 11 25 Jan 08:36:25 08:36:31 10° 88° (E) 08:36:54 145.826/435.025
TIGRISAT 25 Jan 08:37:02 08:37:39 10° 64° (ENE) 08:38:33 435.000
CINEMA 3 25 Jan 08:40:17 08:43:22 17° 90° (E) 08:46:33 145.822/145.860
CUTE 1.7 + AOD 2 25 Jan 08:47:29 08:51:38 52° 99° (E) 08:55:45 437.475
CUBEBUG 2 25 Jan 08:47:53 08:48:12 10° 87° (E) 08:48:50 437.445
AAUSAT CUBESAT 2 25 Jan 08:51:49 08:55:37 34° 97° (E) 08:59:25 437.432
BRITE-PL 25 Jan 09:04:52 09:10:35 74° 285° (WNW) 09:16:07 437.365/2234.400
DUCHIFAT 1 25 Jan 09:05:44 09:06:49 11° 65° (ENE) 09:08:10 145.980
UKube-1 25 Jan 09:07:30 09:09:35 14° 91° (E) 09:11:55 .
DELFI C3 25 Jan 09:12:47 09:15:55 22° 94° (E) 09:19:08 145.870
ZACube-1 25 Jan 09:13:18 09:15:30 14° 89° (E) 09:17:54 437.345
VERMONT LUNAR 25 Jan 09:17:33 09:20:00 18° 147° (SSE) 09:22:31 437.305
YUBILEINY 25 Jan 09:20:51 09:26:32 18° 279° (W) 09:31:43 435.215
DX 1 25 Jan 09:21:58 09:25:17 21° 94° (E) 09:28:43 434.975-435.025
GOMX 1 25 Jan 09:23:08 09:28:37 69° 285° (WNW) 09:33:51 467.674
UNISAT 6 25 Jan 09:23:39 09:27:51 34° 71° (ENE) 09:32:07 437.425
SEEDS 25 Jan 09:24:23 09:28:34 66° 284° (WNW) 09:32:42 437.485
FUNcube-1 25 Jan 09:26:01 09:29:10 19° 92° (E) 09:32:24 145.935
UWE-3 25 Jan 09:34:17 09:38:15 30° 95° (E) 09:42:10 435.000/436.395/437.385
NANOSAT C BR1 25 Jan 09:36:41 09:40:09 25° 70° (ENE) 09:43:42 145.865
QB50P2 25 Jan 09:47:58 09:51:49 34° 72° (ENE) 09:55:45 145.880/145.840
HUMSAT D 25 Jan 09:50:08 09:53:07 19° 92° (E) 09:56:13 437.325/437.525
PHONESAT 2.4 25 Jan 09:50:17 09:52:52 19° 147° (SSE) 09:55:32 2401.200-2431.200
VELOX 1 25 Jan 09:56:09 09:59:14 19° 93° (E) 10:02:28 145.980
DOVE 4 25 Jan 09:56:30 10:01:31 44° 287° (WNW) 10:06:17 437.250
COMPASS 1 25 Jan 09:57:43 10:01:28 32° 288° (WNW) 10:05:08 437.405
QB50P1 25 Jan 09:58:40 10:02:43 45° 74° (ENE) 10:06:51 145.935-145.965
ANTELSAT 25 Jan 09:58:40 10:03:24 81° 78° (ENE) 10:08:09 437.575/2403.000
CANX-2 25 Jan 09:59:15 10:02:29 21° 290° (WNW) 10:05:35 2200.000
50 SAT 25 Jan 10:06:35 10:09:40 21° 94° (E) 10:12:49 437.505
Oscar 11 25 Jan 10:08:56 10:13:12 60° 285° (WNW) 10:17:25 145.826/435.025
TIGRISAT 25 Jan 10:09:06 10:13:49 81° 259° (W) 10:18:34 435.000
HO-68 25 Jan 10:09:56 10:16:29 39° 294° (WNW) 10:22:57 435.675
POLYITAN 1 25 Jan 10:10:13 10:14:27 64° 75° (ENE) 10:18:44 437.675
SO-50 25 Jan 10:10:49 10:13:23 15° 109° (ESE) 10:16:12 436.795
CINEMA 3 25 Jan 10:16:12 10:20:54 45° 287° (WNW) 10:25:23 145.822/145.860
CUBEBUG 1 25 Jan 10:18:56 10:20:50 13° 90° (E) 10:22:59 437.445
CUBEBUG 2 25 Jan 10:20:55 10:25:32 67° 284° (WNW) 10:29:58 437.445
RS-15 25 Jan 10:21:58 10:27:50 15° 359° (N) 10:33:46 29.354- 29.394
CUTE 1.7 + AOD 2 25 Jan 10:25:17 10:27:10 12° 294° (WNW) 10:28:51 437.475
AAUSAT CUBESAT 2 25 Jan 10:28:15 10:31:04 17° 291° (WNW) 10:33:44 437.432
POPSAT HIP 1 25 Jan 10:32:40 10:36:55 71° 258° (WSW) 10:41:14 437.405
BUGSAT 1 25 Jan 10:33:32 10:37:36 90° 122° (ESE) 10:41:45 437.445
DUCHIFAT 1 25 Jan 10:38:01 10:42:13 61° 260° (W) 10:46:29 145.980
UKube-1 25 Jan 10:41:53 10:46:05 47° 287° (WNW) 10:50:15 .
DELFI C3 25 Jan 10:47:48 10:51:09 25° 289° (WNW) 10:54:24 145.870
ZACube-1 25 Jan 10:47:56 10:52:15 47° 286° (WNW) 10:56:25 437.345
ESTCUBE 1 25 Jan 10:50:04 10:54:06 32° 97° (E) 10:58:10 437.505/2401.250
VERMONT LUNAR 25 Jan 10:54:20 10:57:50 80° 159° (SSE) 11:01:22 437.305
DX 1 25 Jan 10:57:43 11:01:36 31° 289° (WNW) 11:05:26 434.975-435.025
AISAT 25 Jan 11:00:54 11:05:26 79° 284° (WNW) 11:09:55 437.250
UNISAT 6 25 Jan 11:00:58 11:04:43 23° 267° (W) 11:08:23 437.425
FUNcube-1 25 Jan 11:01:38 11:05:40 33° 288° (WNW) 11:09:34 145.935
BEESAT 3 25 Jan 11:09:02 11:11:21 15° 45° (NE) 11:13:47 437.485
UWE-3 25 Jan 11:11:03 11:14:40 23° 291° (WNW) 11:18:07 435.000/436.395/437.385
NANOSAT C BR1 25 Jan 11:12:27 11:15:59 24° 265° (W) 11:19:28 145.865
TISAT 1 25 Jan 11:14:32 11:15:56 12° 89° (E) 11:17:36 437.305
QB50P2 25 Jan 11:24:54 11:27:54 18° 268° (W) 11:30:46 145.880/145.840
HUMSAT D 25 Jan 11:25:14 11:29:02 31° 288° (WNW) 11:32:44 437.325/437.525
PHONESAT 2.4 25 Jan 11:27:31 11:31:09 80° 161° (SSE) 11:34:48 2401.200-2431.200
Oscar 19 25 Jan 11:28:05 11:30:22 13° 63° (ENE) 11:32:56 437.125/150
GONETS M04 25 Jan 11:28:35 11:34:30 21° 64° (ENE) 11:40:51
VELOX 1 25 Jan 11:31:51 11:35:59 36° 288° (WNW) 11:40:05 145.980
QB50P1 25 Jan 11:36:41 11:38:56 14° 270° (W) 11:40:59 145.935-145.965
50 SAT 25 Jan 11:41:22 11:44:49 26° 289° (WNW) 11:48:09 437.505
SO-50 25 Jan 11:49:05 11:53:32 52° 305° (NW) 11:58:08 436.795
CUBEBUG 1 25 Jan 11:53:16 11:57:36 51° 286° (WNW) 12:01:54 437.445
SPROUT 25 Jan 11:56:02 12:00:05 37° 97° (E) 12:04:08 437.525
AIST 2 25 Jan 12:01:11 12:04:13 19° 47° (NE) 12:07:20 435.215
AIST 1 25 Jan 12:09:07 12:13:20 59° 280° (W) 12:17:32
BEESAT 2 25 Jan 12:27:10 12:31:22 76° 59° (ENE) 12:35:28 435.950
ESTCUBE 1 25 Jan 12:27:19 12:30:51 22° 291° (WNW) 12:34:15 437.505/2401.250
VERMONT LUNAR 25 Jan 12:32:40 12:36:07 51° 358° (N) 12:39:34 437.305
RS-15 25 Jan 12:36:47 12:45:48 27° 33° (NNE) 12:55:23 29.354- 29.394
BEESAT 3 25 Jan 12:45:49 12:49:55 57° 243° (WSW) 12:53:54 437.485
TISAT 1 25 Jan 12:47:58 12:52:11 53° 285° (WNW) 12:56:20 437.305
SWISSCUBE 25 Jan 12:50:24 12:54:09 23° 94° (E) 12:58:00 437.505
PCSat 25 Jan 12:56:44 12:59:06 13° 42° (NE) 13:01:42 145.827
Oscar 19 25 Jan 13:03:59 13:09:11 73° 258° (WSW) 13:14:24 437.125/150
PHONESAT 2.4 25 Jan 13:06:17 13:09:52 53° 357° (N) 13:13:28 2401.200-2431.200
BEESAT 25 Jan 13:06:43 13:10:57 31° 97° (E) 13:15:13 436.000
ITUPSAT 1 25 Jan 13:07:51 13:12:05 32° 96° (E) 13:16:23 437.325
ITAMSAT 1 25 Jan 13:10:51 13:15:44 45° 72° (ENE) 13:20:41 435.822/435.867
GONETS M04 25 Jan 13:23:46 13:32:28 77° 265° (W) 13:41:07
SPROUT 25 Jan 13:32:58 13:35:57 18° 292° (WNW) 13:38:46 437.525
AIST 2 25 Jan 13:39:01 13:43:05 42° 245° (WSW) 13:47:03 435.215
Gurwin Techsat 1B 25 Jan 13:42:41 13:47:53 61° 74° (ENE) 13:53:08 435.225
HORYU 2 25 Jan 13:45:18 13:48:20 19° 68° (ENE) 13:51:30 437.375
VERMONT LUNAR 25 Jan 14:10:55 14:14:27 76° 14° (NNE) 14:18:00 437.305
CUSAT 1 25 Jan 14:13:25 14:15:45 12° 55° (NE) 14:18:16 437.405
SWISSCUBE 25 Jan 14:27:48 14:32:05 33° 290° (WNW) 14:36:20 437.505
AO-7 25 Jan 14:32:44 14:40:24 44° 64° (ENE) 14:48:13 29.400- 29.500
KKS-1 25 Jan 14:35:49 14:40:15 55° 100° (E) 14:44:39 437.445
M-CUBED/EXP-1 PRIME 25 Jan 14:37:30 14:38:36 11° 97° (E) 14:39:52 437.505
PCSat 25 Jan 14:38:01 14:43:29 82° 62° (ENE) 14:48:54 145.827
STARS 25 Jan 14:39:07 14:43:16 38° 98° (E) 14:47:25 437.465
JAS-2 25 Jan 14:44:13 14:46:46 14° 65° (ENE) 14:49:32 435.910
BEESAT 25 Jan 14:44:48 14:48:41 25° 291° (WNW) 14:52:28 436.000
PHONESAT 2.4 25 Jan 14:45:00 14:48:41 77° 14° (NNE) 14:52:21 2401.200-2431.200
ITUPSAT 1 25 Jan 14:45:59 14:49:53 25° 291° (WNW) 14:53:41 437.325
RS-15 25 Jan 14:48:46 15:00:13 84° 58° (ENE) 15:12:13 29.354- 29.394
ITAMSAT 1 25 Jan 14:51:44 14:55:31 20° 268° (W) 14:59:08 435.822/435.867
DANDE 25 Jan 15:02:47 15:08:50 29° 66° (ENE) 15:13:45 436.750
AUBIESAT-1 25 Jan 15:12:37 15:15:36 31° 103° (ESE) 15:18:39 437.475
HORYU 2 25 Jan 15:20:32 15:24:45 39° 262° (W) 15:28:59 437.375
GONETS M04 25 Jan 15:24:37 15:28:04 12° 282° (WNW) 15:30:48
Gurwin Techsat 1B 25 Jan 15:25:18 15:28:22 15° 270° (W) 15:31:11 435.225
O/OREOS (USA 219) 25 Jan 15:46:42 15:48:41 13° 100° (E) 15:50:54 437.305
MOZHAYETS 4 25 Jan 15:47:17 15:48:39 11° 89° (E) 15:50:18
VERMONT LUNAR 25 Jan 15:49:19 15:52:26 29° 210° (SSW) 15:55:33 437.305
CUSAT 1 25 Jan 15:53:44 16:00:28 89° 276° (W) 16:05:24 437.405
M-CUBED/EXP-1 PRIME 25 Jan 16:10:50 16:13:48 30° 292° (WNW) 16:16:45 437.505
KKS-1 25 Jan 16:14:13 16:16:29 13° 294° (WNW) 16:18:33 437.445
STARS 25 Jan 16:16:24 16:19:30 18° 293° (WNW) 16:22:27 437.465
Cubesat XI-IV 25 Jan 16:23:17 16:26:28 17° 64° (ENE) 16:29:53 437.490
PHONESAT 2.4 25 Jan 16:23:51 16:27:06 29° 210° (SSW) 16:30:19 2401.200-2431.200
PCSat 25 Jan 16:24:27 16:26:17 11° 256° (WSW) 16:27:44 145.827
AO-7 25 Jan 16:25:29 16:33:16 41° 262° (W) 16:40:58 29.400- 29.500
JAS-2 25 Jan 16:25:46 16:31:32 70° 258° (WSW) 16:36:50 435.910
CUTE-I 25 Jan 16:43:19 16:47:32 25° 68° (ENE) 16:51:53 437.470
DANDE 25 Jan 16:46:06 16:52:32 39° 272° (W) 16:57:25 436.750
AUBIESAT-1 25 Jan 16:48:56 16:50:21 12° 296° (WNW) 16:51:39 437.475
RS-15 25 Jan 17:02:57 17:11:41 24° 256° (WSW) 17:20:02 29.354- 29.394
MOZHAYETS 4 25 Jan 17:21:52 17:26:22 60° 285° (WNW) 17:30:51
O/OREOS (USA 219) 25 Jan 17:23:20 17:27:41 50° 294° (WNW) 17:32:06 437.305
PRISM 25 Jan 17:35:40 17:38:15 16° 93° (E) 17:40:58 437.425
Cubesat XI-IV 25 Jan 18:00:54 18:06:08 60° 259° (W) 18:11:25 437.490
CUTE-I 25 Jan 18:22:32 18:27:27 38° 263° (W) 18:32:22 437.470
YUBILEINY 25 Jan 18:27:41 18:32:44 18° 81° (E) 18:38:18 435.215
BRITE-PL 25 Jan 18:38:54 18:40:37 12° 62° (ENE) 18:42:39 437.365/2234.400
SO-50 25 Jan 18:43:30 18:45:39 13° 40° (NE) 18:48:00 436.795
HO-68 25 Jan 18:49:58 18:55:18 24° 62° (ENE) 19:00:51 435.675
GOMX 1 25 Jan 18:54:36 18:56:23 12° 62° (ENE) 18:58:30 467.674
CUBESAT XI-V 25 Jan 19:02:46 19:07:27 71° 284° (WNW) 19:12:08 437.345
PRISM 25 Jan 19:10:08 19:13:56 35° 288° (WNW) 19:17:42 437.425
STRAND 1 25 Jan 19:10:48 19:16:00 89° 121° (ESE) 19:21:09 437.568
COMPASS 1 25 Jan 19:14:39 19:15:43 11° 66° (ENE) 19:17:02 437.405
CANX-2 25 Jan 19:15:06 19:17:59 18° 69° (ENE) 19:20:59 2200.000
DOVE 4 25 Jan 19:23:59 19:27:07 17° 65° (ENE) 19:30:32 437.250
JUGNU 25 Jan 19:32:05 19:34:24 12° 174° (S) 19:36:45 437.505
CUTE 1.7 + AOD 2 25 Jan 19:38:54 19:42:38 30° 72° (ENE) 19:46:26 437.475
CINEMA 3 25 Jan 19:40:56 19:43:26 14° 65° (ENE) 19:46:12 145.822/145.860
AAUSAT CUBESAT 2 25 Jan 19:41:56 19:44:57 20° 70° (ENE) 19:48:05 437.432
DELFI C3 25 Jan 20:01:05 20:02:37 12° 67° (ENE) 20:04:22 145.870
UKube-1 25 Jan 20:03:22 20:03:26 10° 64° (ENE) 20:03:46 .
ZACube-1 25 Jan 20:09:34 20:10:14 10° 64° (ENE) 20:11:11 437.345
BRITE-PL 25 Jan 20:13:32 20:18:23 80° 258° (WSW) 20:23:41 437.365/2234.400
SEEDS 25 Jan 20:14:31 20:18:46 67° 76° (ENE) 20:23:01 437.485
DX 1 25 Jan 20:16:52 20:19:23 16° 67° (ENE) 20:22:06 434.975-435.025
YUBILEINY 25 Jan 20:19:55 20:28:38 82° 279° (W) 20:37:23 435.215
FUNcube-1 25 Jan 20:21:08 20:23:26 14° 66° (ENE) 20:25:58 145.935
SO-50 25 Jan 20:22:05 20:27:02 83° 59° (ENE) 20:31:57 436.795
GOMX 1 25 Jan 20:28:54 20:33:47 79° 258° (WSW) 20:39:04 467.674
UWE-3 25 Jan 20:30:00 20:33:29 22° 69° (ENE) 20:37:08 435.000/436.395/437.385
HO-68 25 Jan 20:35:27 20:42:33 63° 258° (WSW) 20:49:38 435.675
HUMSAT D 25 Jan 20:42:01 20:43:41 12° 66° (ENE) 20:45:35 437.325/437.525
COMPASS 1 25 Jan 20:46:49 20:51:01 60° 260° (W) 20:55:13 437.405
CANX-2 25 Jan 20:49:43 20:53:43 35° 263° (W) 20:57:40 2200.000
STRAND 1 25 Jan 20:53:16 20:54:32 11° 298° (WNW) 20:55:28 437.568
VELOX 1 25 Jan 20:53:22 20:55:36 14° 66° (ENE) 20:58:04 145.980
50 SAT 25 Jan 20:54:12 20:55:35 12° 66° (ENE) 20:57:11 437.505
DOVE 4 25 Jan 20:59:40 21:04:26 53° 261° (W) 21:09:30 437.250
Oscar 11 25 Jan 21:01:33 21:05:54 81° 77° (ENE) 21:10:16 145.826/435.025
CINEMA 3 25 Jan 21:15:20 21:20:07 62° 260° (W) 21:25:06 145.822/145.860
CUTE 1.7 + AOD 2 25 Jan 21:15:20 21:18:38 21° 267° (W) 21:21:50 437.475
AAUSAT CUBESAT 2 25 Jan 21:16:41 21:20:28 30° 264° (W) 21:24:11 437.432
CUBEBUG 2 25 Jan 21:16:44 21:21:26 82° 77° (ENE) 21:26:14 437.445
JUGNU 25 Jan 21:19:57 21:22:35 13° 184° (S) 21:25:13 437.505
DELFI C3 25 Jan 21:33:31 21:37:30 50° 261° (W) 21:41:30 145.870
UKube-1 25 Jan 21:34:48 21:39:06 71° 258° (WSW) 21:43:26 .
ZACube-1 25 Jan 21:41:29 21:46:03 77° 258° (WSW) 21:50:41 437.345
ESTCUBE 1 25 Jan 21:48:32 21:52:05 24° 70° (ENE) 21:55:45 437.505/2401.250
DX 1 25 Jan 21:51:12 21:55:20 43° 261° (W) 21:59:30 434.975-435.025
SRMSAT 25 Jan 21:52:44 21:55:29 13° 178° (S) 21:58:15 437.500
ANTELSAT 25 Jan 21:54:09 21:57:15 19° 92° (E) 22:00:27 437.575/2403.000
FUNcube-1 25 Jan 21:54:53 21:59:22 55° 261° (W) 22:03:55 145.935
AISAT 25 Jan 21:57:01 22:01:25 75° 76° (ENE) 22:05:53 437.250
POLYITAN 1 25 Jan 21:59:58 22:01:39 12° 90° (E) 22:03:35 437.675
TIGRISAT 25 Jan 22:03:53 22:07:27 24° 94° (E) 22:11:02 435.000
UWE-3 25 Jan 22:05:35 22:09:50 35° 264° (W) 22:14:08 435.000/436.395/437.385
SO-50 25 Jan 22:06:09 22:07:02 10° 252° (WSW) 22:07:35 436.795
HUMSAT D 25 Jan 22:14:47 22:19:03 57° 260° (W) 22:23:21 437.325/437.525
AIST 1 25 Jan 22:18:35 22:22:14 26° 76° (ENE) 22:25:57
BUGSAT 1 25 Jan 22:19:07 22:21:39 16° 92° (E) 22:24:22 437.445
POPSAT HIP 1 25 Jan 22:20:47 22:24:05 22° 94° (E) 22:27:28 437.405
YUBILEINY 25 Jan 22:22:15 22:27:07 15° 300° (WNW) 22:31:25 435.215
DUCHIFAT 1 25 Jan 22:25:36 22:29:05 24° 95° (E) 22:32:37 145.980
50 SAT 25 Jan 22:26:15 22:30:18 54° 260° (W) 22:34:23 437.505
ISS 25 Jan 22:27:15 22:30:14 34° 134° (SE) 22:33:17 145.825
VELOX 1 25 Jan 22:27:32 22:31:49 50° 260° (W) 22:36:10 145.980
CUBEBUG 1 25 Jan 22:47:28 22:51:48 79° 257° (WSW) 22:56:12 437.445
SPROUT 25 Jan 22:49:02 22:52:26 24° 70° (ENE) 22:55:56 437.525
UNISAT 6 25 Jan 22:54:06 22:58:38 88° 277° (W) 23:03:00 437.425
NANOSAT C BR1 25 Jan 22:58:42 23:02:58 61° 100° (E) 23:07:12 145.865
QB50P2 25 Jan 23:10:45 23:15:06 87° 102° (ESE) 23:19:24 145.880/145.840
QB50P1 25 Jan 23:21:30 23:25:49 72° 284° (WNW) 23:30:04 145.935-145.965
ESTCUBE 1 25 Jan 23:25:00 23:28:54 28° 264° (W) 23:32:44 437.505/2401.250
ANTELSAT 25 Jan 23:30:08 23:34:14 34° 289° (WNW) 23:38:10 437.575/2403.000
POLYITAN 1 25 Jan 23:33:46 23:37:59 50° 286° (WNW) 23:42:09 437.675
TISAT 1 25 Jan 23:38:19 23:42:32 89° 80° (E) 23:46:49 437.305
TIGRISAT 25 Jan 23:40:22 23:44:14 28° 290° (WNW) 23:47:55 435.000
SRMSAT 25 Jan 23:42:00 23:43:50 11° 188° (S) 23:45:37 437.500
BUGSAT 1 25 Jan 23:53:22 23:57:22 39° 287° (WNW) 00:01:21 437.445
SWISSCUBE 25 Jan 23:55:43 23:59:18 22° 68° (ENE) 00:03:02 437.505
POPSAT HIP 1 25 Jan 23:56:16 00:00:02 29° 289° (WNW) 00:03:43 437.405
AIST 1 25 Jan 23:56:24 23:59:48 22° 270° (W) 00:03:06
DUCHIFAT 1 26 Jan 00:01:18 00:04:54 26° 290° (WNW) 00:08:26 145.980
ISS 26 Jan 00:04:01 00:06:49 25° 330° (NNW) 00:09:37 145.825
BEESAT 26 Jan 00:11:43 00:15:48 30° 70° (ENE) 00:19:58 436.000
ITUPSAT 1 26 Jan 00:13:10 00:17:17 30° 70° (ENE) 00:21:29 437.325
SPROUT 26 Jan 00:24:46 00:28:27 27° 265° (W) 00:32:06 437.525
GONETS M04 26 Jan 00:27:55 00:34:25 25° 84° (E) 00:41:16
NANOSAT C BR1 26 Jan 00:36:54 00:38:24 11° 295° (WNW) 00:39:39 145.865
Oscar 19 26 Jan 01:17:40 01:22:36 46° 98° (E) 01:27:32 437.125/150
M-CUBED/EXP-1 PRIME 26 Jan 01:24:25 01:27:04 17° 66° (ENE) 01:29:43 437.505
ITAMSAT 1 26 Jan 01:26:30 01:30:00 19° 92° (E) 01:33:43 435.822/435.867
KKS-1 26 Jan 01:32:20 01:36:29 40° 72° (ENE) 01:40:42 437.445
SWISSCUBE 26 Jan 01:32:39 01:37:01 35° 263° (W) 01:41:21 437.505
STARS 26 Jan 01:34:43 01:38:27 28° 70° (ENE) 01:42:18 437.465
BEESAT 26 Jan 01:49:42 01:53:40 25° 265° (W) 01:57:35 436.000
ITUPSAT 1 26 Jan 01:51:16 01:55:13 25° 265° (W) 01:59:06 437.325
O/OREOS (USA 219) 26 Jan 01:56:30 01:59:55 21° 58° (ENE) 02:03:27 437.305
AUBIESAT-1 26 Jan 01:59:28 02:03:20 38° 69° (ENE) 02:06:56 437.475
Gurwin Techsat 1B 26 Jan 02:01:16 02:05:45 28° 95° (E) 02:10:20 435.225
BEESAT 2 26 Jan 02:21:03 02:24:15 23° 112° (ESE) 02:27:35 435.950
GONETS M04 26 Jan 02:21:59 02:30:41 64° 281° (W) 02:39:21
BEESAT 3 26 Jan 02:38:13 02:42:03 41° 115° (ESE) 02:45:58 437.485
AO-7 26 Jan 02:39:17 02:42:23 13° 87° (E) 02:46:13 29.400- 29.500
Oscar 19 26 Jan 02:57:55 03:01:40 20° 294° (WNW) 03:05:15 437.125/150
M-CUBED/EXP-1 PRIME 26 Jan 02:57:57 03:01:54 36° 256° (WSW) 03:05:33 437.505
ITAMSAT 1 26 Jan 03:04:48 03:09:49 48° 288° (WNW) 03:14:49 435.822/435.867
RS-15 26 Jan 03:08:19 03:09:42 11° 99° (E) 03:12:20 29.354- 29.394
KKS-1 26 Jan 03:10:22 03:13:22 17° 268° (W) 03:16:12 437.445
STARS 26 Jan 03:11:17 03:14:56 24° 265° (W) 03:18:33 437.465
HORYU 2 26 Jan 03:13:42 03:17:59 45° 99° (E) 03:22:14 437.375
CUSAT 1 26 Jan 03:16:28 03:22:05 23° 84° (E) 03:28:21 437.405
AIST 2 26 Jan 03:35:04 03:39:15 63° 118° (ESE) 03:43:30 435.215
O/OREOS (USA 219) 26 Jan 03:35:16 03:39:30 36° 255° (WSW) 03:43:40 437.305
AUBIESAT-1 26 Jan 03:35:48 03:38:21 15° 261° (W) 03:40:39 437.475
JAS-2 26 Jan 03:37:14 03:40:11 15° 91° (E) 03:43:39 435.910
PCSat 26 Jan 03:37:52 03:40:09 13° 105° (ESE) 03:42:45 145.827
Gurwin Techsat 1B 26 Jan 03:41:01 03:45:46 33° 290° (WNW) 03:50:26 435.225
BEESAT 2 26 Jan 03:58:41 04:02:21 30° 308° (NW) 04:06:02 435.950
DANDE 26 Jan 04:09:09 04:16:26 47° 90° (E) 04:24:39 436.750
BEESAT 3 26 Jan 04:17:26 04:20:25 18° 313° (NW) 04:23:19 437.485
MOZHAYETS 4 26 Jan 04:21:43 04:26:20 81° 258° (WSW) 04:30:56
PRISM 26 Jan 04:27:01 04:27:30 10° 65° (ENE) 04:28:14 437.425
GONETS M04 26 Jan 04:28:00 04:29:48 10° 304° (NW) 04:30:48
AO-7 26 Jan 04:28:16 04:36:39 79° 106° (ESE) 04:44:58 29.400- 29.500
STRAND 1 26 Jan 04:49:30 04:51:19 12° 63° (ENE) 04:53:25 437.568
HORYU 2 26 Jan 04:51:35 04:54:20 16° 293° (WNW) 04:56:55 437.375
CUSAT 1 26 Jan 04:56:29 05:04:21 76° 280° (W) 05:12:54 437.405
ISS 26 Jan 04:56:49 04:59:36 25° 29° (NNE) 05:02:24 145.825
CUTE-I 26 Jan 05:04:34 05:05:34 11° 87° (E) 05:06:58 437.470
RS-15 26 Jan 05:09:37 05:20:20 66° 115° (ESE) 05:31:10 29.354- 29.394
AIST 2 26 Jan 05:15:54 05:18:21 14° 316° (NW) 05:20:40 435.215
PCSat 26 Jan 05:17:36 05:23:01 73° 298° (WNW) 05:28:28 145.827
JAS-2 26 Jan 05:20:12 05:25:45 69° 285° (WNW) 05:31:58 435.910
